Theta_e
332 334 333 333 334 332 332 334 336 335 333 332 332 332 332 330 328 324 320 323 323 320 317 315 315 317 316 316 315 314 314 313 314 315 315 317 319 317 315 316 315 313 309 307 312 317 319 319 319 318 314 316 315 304 297 299 298 298 299 298 299 299 299
333 333 333 334 333 331 332 335 335 334 333 332 332 332 331 328 326 322 320 323 323 318 315 315 315 316 315 314 314 313 313 312 312 312 312 311 312 314 317 319 319 318 316 312 312 315 317 316 317 317 314 316 317 306 298 299 299 299 299 299 299 299 299
334 333 334 333 331 330 334 335 334 334 332 331 332 331 329 326 322 320 321 322 320 316 315 316 315 315 314 313 313 312 312 312 311 310 310 308 306 305 309 315 317 317 319 317 315 315 315 315 316 316 313 315 315 307 300 299 300 300 299 300 299 300 300
333 333 334 332 330 332 335 335 334 333 332 331 332 330 327 324 319 319 321 320 317 316 315 315 315 314 313 312 312 312 312 311 310 308 306 304 302 301 301 305 308 310 313 314 313 314 314 314 314 312 312 313 310 306 303 301 301 300 299 300 300 299 300
332 332 332 331 332 334 335 334 333 332 331 331 331 329 325 321 318 318 321 320 317 316 316 315 315 313 312 312 312 312 311 309 307 306 303 301 300 300 299 300 301 302 304 307 307 309 310 311 312 310 310 312 309 306 305 305 304 302 299 299 300 300 300
332 332 332 333 334 334 333 333 333 331 331 331 330 327 323 319 318 319 321 320 317 316 316 315 314 313 312 312 311 310 309 307 304 302 301 300 300 300 299 299 299 299 299 300 301 302 304 306 309 311 310 309 309 308 307 306 306 304 302 300 299 300 300
333 333 334 336 335 333 333 333 332 332 331 331 329 326 321 318 319 319 319 318 316 317 316 314 313 313 312 311 310 309 306 303 301 301 301 300 300 300 299 299 299 299 298 298 299 299 300 302 306 310 312 310 309 308 307 307 305 303 303 302 299 298 300
333 333 335 336 335 334 333 333 332 332 331 330 329 327 321 317 317 318 318 317 317 316 315 313 313 312 311 310 308 306 303 301 300 301 301 301 300 300 299 299 299 299 298 298 298 298 298 299 300 305 311 313 311 309 307 307 307 303 301 303 301 298 298
333 333 334 335 334 335 333 333 333 332 331 330 329 328 322 317 318 318 317 317 317 315 313 313 313 312 310 307 305 303 301 301 301 301 300 300 300 299 299 299 298 298 298 298 298 298 298 298 298 300 306 310 312 311 307 306 307 305 300 301 303 300 297
332 333 333 332 333 334 333 333 333 331 331 330 330 327 321 317 318 318 317 317 315 314 313 312 312 310 307 304 302 301 300 300 300 300 300 300 300 299 299 299 298 298 298 298 298 298 298 298 298 298 299 304 309 311 309 305 304 305 303 300 300 300 298
331 332 333 333 332 334 333 333 332 331 330 330 330 326 319 318 318 317 317 316 314 314 313 312 311 307 304 302 300 300 300 300 300 300 300 300 299 299 298 298 298 298 298 298 298 298 297 298 298 298 297 298 303 308 310 306 303 302 303 302 298 297 297
331 332 334 334 333 333 334 332 332 331 330 330 329 324 319 318 318 317 316 315 314 313 312 310 309 305 301 300 299 300 300 300 300 300 300 299 299 298 298 298 298 298 298 298 298 297 297 297 298 298 298 296 298 305 307 307 304 300 300 302 300 297 296
332 331 334 335 333 334 333 332 331 330 330 330 328 323 320 319 318 316 315 314 313 312 310 309 306 302 300 299 299 300 300 300 300 300 299 299 298 298 298 298 298 298 298 297 298 297 296 297 297 297 299 297 296 301 305 306 305 301 299 301 301 298 296
332 332 334 334 333 334 333 332 331 330 330 330 327 323 321 319 317 316 314 314 313 311 309 307 304 300 299 299 300 300 300 300 299 299 299 298 298 298 298 298 298 297 297 297 297 297 296 296 297 296 297 298 296 297 303 305 305 303 300 300 301 299 296
332 334 334 334 333 333 332 332 331 330 329 328 326 323 321 319 317 315 314 313 312 310 308 305 302 300 299 299 299 300 300 299 299 299 299 298 298 298 298 297 297 297 297 297 297 297 297 296 297 296 296 297 297 296 299 303 305 304 301 300 301 300 297
332 335 334 334 333 332 332 332 331 330 329 327 325 322 321 319 316 314 314 313 312 310 307 303 300 299 299 299 299 299 299 299 299 299 298 299 298 298 297 297 297 297 297 297 296 296 297 296 296 296 296 296 296 296 296 300 303 304 303 300 300 300 298
333 335 334 333 333 332 332 331 330 330 328 326 324 322 320 318 316 314 313 313 312 310 306 302 300 299 299 299 298 299 299 298 299 299 298 299 298 298 298 297 297 297 297 297 296 296 296 296 297 297 297 297 296 296 296 296 299 302 303 301 300 299 299
335 335 334 332 332 332 332 331 330 329 328 325 324 322 320 318 316 314 314 314 313 311 306 301 299 299 299 298 298 298 299 298 298 298 298 298 298 298 298 298 297 297 297 296 296 296 296 296 296 297 297 298 297 297 296 297 299 301 302 302 301 299 298
335 335 333 332 332 332 331 331 330 329 327 325 323 322 320 318 316 315 314 314 314 312 307 301 299 299 298 298 298 298 298 298 298 298 299 298 298 298 298 298 297 297 297 297 296 296 296 296 296 296 296 298 298 297 298 299 301 302 302 302 301 300 298
334 334 333 332 332 332 331 330 330 329 326 324 323 322 320 318 316 316 315 315 314 313 309 303 298 298 298 297 298 298 298 298 298 298 298 297 297 298 298 297 297 297 297 296 296 296 296 296 295 295 295 296 297 299 301 302 302 302 302 302 300 300 300
334 333 332 332 331 332 331 330 329 328 326 324 323 322 320 318 317 317 316 315 315 314 311 305 299 297 298 297 297 298 298 298 298 298 298 297 297 298 298 298 298 298 297 296 296 296 296 297 297 296 295 296 297 300 303 303 303 302 302 302 301 300 300
334 333 332 332 332 331 331 330 329 328 325 324 323 322 321 319 318 317 316 316 315 314 312 308 301 297 297 297 297 297 298 298 298 298 298 298 298 299 299 299 299 297 296 296 296 296 296 296 297 296 295 296 297 300 302 303 303 302 302 302 302 300 299
334 333 332 332 331 331 331 330 329 327 325 324 323 322 321 319 318 316 315 315 315 314 313 310 303 298 297 297 297 297 298 298 298 298 299 299 299 300 299 298 297 297 296 296 296 296 296 295 296 295 295 296 297 298 301 302 302 302 301 301 301 301 300
333 333 332 331 331 331 330 329 328 326 325 324 323 322 321 320 319 317 316 315 315 314 314 311 305 299 297 297 297 296 298 299 299 299 299 299 300 301 300 297 296 297 296 296 295 295 295 295 295 295 295 295 295 296 298 300 301 301 301 299 299 300 300
333 332 332 331 331 330 330 329 327 326 325 324 323 323 321 320 319 318 317 316 316 315 314 313 308 300 296 297 296 296 298 299 301 301 300 300 300 301 302 299 297 298 297 296 296 295 295 295 295 295 295 295 295 294 295 297 298 299 299 298 296 297 299
332 332 331 331 331 330 329 328 326 325 324 323 323 323 321 320 319 318 317 316 316 316 314 313 309 301 297 297 296 297 298 299 302 303 303 302 301 301 302 302 300 299 297 297 297 296 294 295 295 294 295 295 294 294 294 294 295 296 296 296 295 294 295
332 332 331 330 330 329 328 327 326 325 324 323 323 322 321 320 318 318 318 317 317 316 314 314 310 302 297 297 296 298 300 299 301 303 303 302 301 300 302 303 303 300 297 299 301 299 296 295 296 296 296 295 295 295 294 294 294 294 294 294 294 293 293
332 331 330 330 330 329 328 327 326 324 324 323 323 322 321 320 318 318 318 317 317 316 315 314 311 303 297 296 296 297 299 299 300 302 302 300 300 300 301 303 304 302 300 302 303 301 301 300 299 298 298 297 295 295 294 294 293 293 294 294 293 293 293
331 330 330 330 329 328 328 327 325 323 323 323 322 322 321 319 318 318 318 317 317 316 315 314 311 304 297 296 296 296 297 298 299 300 300 298 299 299 299 302 305 303 302 303 300 298 301 302 301 301 300 300 299 298 295 294 294 293 293 294 294 293 293
331 330 331 330 328 327 328 327 325 323 322 322 322 321 320 319 318 318 318 317 317 316 315 313 311 304 297 295 296 296 296 298 298 299 298 297 298 299 297 300 304 304 304 303 299 295 297 301 303 303 301 301 302 301 297 293 293 294 293 294 294 293 293
331 331 331 329 327 327 328 327 325 324 322 321 321 321 320 319 318 318 318 317 317 316 314 312 310 304 297 295 296 295 297 299 299 299 298 297 299 299 296 297 301 303 304 303 298 295 297 301 304 303 302 302 303 302 298 294 294 295 293 293 294 293 293
331 330 330 329 327 327 327 327 325 323 321 321 321 320 319 319 318 318 317 317 316 316 314 312 309 303 297 296 295 295 299 301 299 298 298 297 299 300 297 295 296 300 303 301 297 296 296 300 304 304 302 303 304 302 298 296 298 299 296 294 295 293 293
330 330 329 328 327 327 327 326 324 322 321 320 320 320 319 318 318 317 317 316 315 314 313 311 308 302 296 296 295 296 301 303 299 298 298 298 299 299 297 295 295 296 298 297 296 296 296 298 303 304 302 304 305 302 298 296 297 297 296 295 295 295 295
329 329 329 327 326 326 326 325 323 321 320 319 319 319 318 317 317 317 316 316 314 313 312 310 305 299 295 295 295 295 300 303 300 298 299 299 300 300 298 298 297 295 295 296 296 296 296 296 299 301 303 305 303 299 298 298 296 295 296 297 298 298 299
328 328 329 327 326 326 325 323 321 319 319 319 318 318 317 317 317 316 315 314 312 312 311 306 300 296 295 295 295 295 299 301 300 299 300 300 301 302 302 301 299 294 294 295 295 295 296 295 296 299 301 301 297 293 295 298 299 299 300 300 300 300 300
328 328 328 328 327 326 324 322 320 319 318 318 318 317 317 317 316 315 313 312 311 310 308 302 297 295 295 295 295 295 297 297 297 298 301 302 301 302 302 301 298 294 294 295 294 294 295 295 295 296 296 295 294 293 294 297 299 300 301 300 299 300 300
328 328 328 327 326 325 324 322 319 318 318 317 317 317 316 316 315 314 312 311 310 309 304 298 296 295 295 295 295 295 295 295 295 297 301 302 301 302 300 297 295 294 294 294 294 294 294 294 294 294 294 294 294 293 294 297 300 300 300 299 299 300 300
Wind_Speed
18 16 15 13 13 13 12 11 9 7 6 4 3 1 1 1 2 1 3 4 4 5 5 5 6 6 4 3 5 6 6 7 7 7 8 7 6 8 9 8 6 6 7 7 5 4 4 4 4 6 10 9 9 18 21 20 22 23 22 23 22 22 21
18 17 16 15 15 13 13 12 10 8 7 5 3 1 1 2 2 1 3 4 5 6 6 6 6 5 4 4 6 7 7 8 8 8 8 8 8 7 7 6 5 4 6 7 6 5 4 3 3 6 9 7 7 15 20 20 23 25 25 25 24 23 22
21 18 15 15 16 14 13 13 11 8 7 5 2 1 1 1 1 2 4 5 5 6 6 6 5 4 5 6 7 8 8 8 8 9 8 8 8 7 6 5 4 3 3 4 5 5 4 3 3 5 7 6 5 11 17 21 23 25 26 26 26 25 24
19 16 15 15 16 15 13 13 11 9 6 4 2 1 1 1 1 3 5 6 6 6 6 6 5 4 6 7 8 8 8 8 8 9 8 8 8 7 7 8 8 7 6 4 5 5 4 4 4 5 5 5 5 9 15 20 23 25 26 26 26 26 25
14 15 16 16 16 15 13 13 11 9 7 4 2 1 1 2 3 5 6 6 6 6 6 5 4 5 6 7 8 8 8 8 9 8 8 8 8 9 11 12 12 11 10 9 8 7 6 5 5 5 5 4 5 7 13 17 18 20 25 26 25 26 26
13 16 17 16 15 14 12 12 11 9 7 5 3 2 2 3 4 5 6 5 6 6 5 5 4 5 7 8 8 8 8 8 8 8 8 9 10 11 13 13 13 14 14 15 14 13 12 9 5 5 5 5 5 6 9 14 14 15 21 26 26 25 25
16 19 19 17 15 13 11 12 11 9 7 6 5 3 3 4 5 6 6 6 6 6 5 5 5 6 7 8 7 7 7 7 8 8 9 10 11 13 14 14 14 15 16 17 17 17 16 13 9 5 4 4 6 7 8 11 15 17 18 21 25 26 24
18 19 18 17 15 13 11 12 10 8 7 7 5 3 3 4 5 7 7 6 6 6 6 6 5 6 7 7 7 7 7 8 9 9 10 11 12 13 14 15 16 17 17 18 18 18 18 17 15 11 5 3 4 7 9 10 13 18 19 17 21 26 26
18 18 16 15 14 12 12 13 10 8 7 6 4 2 3 6 7 7 7 6 6 6 7 6 5 7 7 6 7 7 8 9 10 10 10 12 13 14 15 16 17 17 17 18 18 18 19 20 19 16 12 7 5 5 8 11 12 14 19 19 18 23 27
19 17 16 17 16 14 14 13 10 8 7 5 3 3 6 8 8 8 7 6 7 7 7 6 6 7 6 7 7 8 9 10 10 10 11 12 13 14 15 16 17 17 17 18 18 18 20 20 19 19 17 14 10 6 7 11 13 12 16 20 20 20 26
19 18 18 19 18 17 16 14 10 8 7 4 3 5 8 9 8 8 7 7 8 8 8 7 6 6 6 7 8 9 10 11 10 10 11 13 14 13 15 17 17 17 17 17 18 19 20 20 19 19 19 17 15 11 8 9 12 13 13 17 21 22 25
21 20 20 21 20 19 16 14 11 8 7 5 4 6 10 10 8 8 8 8 9 9 8 7 6 7 7 8 9 10 11 11 11 11 12 13 14 14 15 16 16 16 17 17 18 19 19 20 19 18 18 17 17 15 10 8 10 14 15 14 18 22 25
22 22 21 21 22 20 16 14 11 8 7 5 5 9 10 10 8 8 9 10 10 9 8 7 6 7 8 9 10 10 11 11 11 11 12 13 13 14 15 15 15 16 16 17 17 18 18 19 19 19 18 16 16 16 12 10 10 12 16 16 16 20 25
23 22 22 23 22 20 17 14 11 9 8 6 7 11 11 10 9 9 10 11 10 9 8 7 7 8 9 10 10 11 11 11 11 12 13 13 13 14 14 14 14 14 16 16 16 16 17 18 18 19 19 16 16 16 14 11 10 11 14 16 15 18 24
24 23 23 24 22 20 18 14 12 10 8 7 9 12 11 10 10 10 11 11 10 9 8 7 8 9 10 10 10 11 12 11 11 12 13 12 12 13 14 14 14 14 15 15 15 16 16 18 18 18 19 18 16 17 16 12 9 9 12 15 15 16 21
24 23 23 24 23 20 18 15 13 11 8 8 11 12 12 11 10 11 12 11 11 9 8 8 8 9 10 10 10 11 11 11 11 12 13 12 12 12 13 14 13 13 14 14 15 15 16 17 17 18 19 18 17 18 18 16 11 8 9 13 15 15 19
24 23 25 25 23 21 19 16 14 11 7 8 12 13 12 12 11 12 13 12 11 9 8 8 8 9 10 11 11 11 11 11 12 12 13 12 12 12 13 13 13 13 13 14 14 14 15 15 16 17 17 17 17 18 18 18 16 11 9 11 15 17 17
24 25 26 26 24 21 19 17 15 12 9 9 12 13 13 13 12 13 13 12 10 9 8 8 8 9 10 11 11 11 11 11 12 12 12 12 12 12 13 13 13 12 12 13 14 14 14 15 15 15 15 14 15 17 17 18 16 12 11 11 13 16 18
25 27 27 26 23 21 20 18 15 12 10 10 12 13 14 14 13 14 13 12 11 9 8 7 8 9 9 10 11 11 11 12 12 13 13 12 12 12 12 13 12 13 12 12 13 13 13 14 15 15 15 14 14 15 16 16 14 12 12 11 12 14 17
26 27 27 25 23 21 21 18 15 13 10 10 12 14 14 14 14 14 14 13 11 9 8 7 8 9 9 10 11 11 11 12 12 13 13 13 13 12 12 13 13 13 12 12 13 13 13 14 14 14 15 14 14 14 13 11 11 11 11 12 13 14 15
27 27 25 24 22 21 21 19 16 13 11 11 13 14 14 15 14 13 14 13 11 10 8 7 7 8 9 10 11 11 11 12 12 13 14 13 13 13 12 12 12 12 12 12 12 13 13 13 13 13 13 14 14 13 10 9 9 10 11 11 13 14 14
28 27 25 24 22 21 21 19 16 14 11 11 13 14 14 14 13 13 14 13 11 10 9 7 7 8 9 10 11 12 12 12 12 13 13 14 13 13 12 11 11 11 11 12 12 12 13 13 12 12 12 13 14 13 9 8 9 9 11 12 12 14 15
29 27 27 26 23 22 22 19 16 14 13 12 14 15 14 14 13 13 13 13 12 10 9 8 7 8 9 10 11 12 12 13 13 12 13 13 13 12 11 11 12 11 11 11 12 12 12 12 12 12 12 12 13 13 11 9 10 10 11 12 13 14 16
30 28 26 24 22 23 22 19 16 15 15 15 15 16 15 15 14 13 13 13 12 11 10 8 8 8 9 10 11 12 12 13 13 12 12 12 13 12 11 10 11 11 11 11 11 12 12 11 12 12 12 12 13 13 13 12 12 12 12 13 14 13 13
29 27 25 24 23 23 22 19 17 16 17 17 17 18 18 17 15 14 14 13 12 11 11 9 8 8 9 11 12 13 13 13 13 12 11 11 11 12 11 10 10 10 10 10 11 11 11 11 11 11 11 12 12 13 13 13 13 13 13 13 14 14 12
26 25 24 24 24 24 22 19 17 17 18 18 18 19 20 19 17 16 15 14 13 13 12 10 9 9 10 11 13 14 13 13 13 12 11 11 11 12 11 10 10 9 9 10 10 9 11 11 11 11 11 11 12 12 13 13 13 14 14 13 14 15 14
24 24 24 24 25 25 22 18 16 16 17 18 19 21 22 21 20 17 16 14 14 14 13 11 10 9 10 12 13 14 14 13 14 13 13 12 12 12 12 11 10 9 10 10 7 6 8 10 9 9 9 10 11 10 11 12 12 13 14 14 13 14 14
25 24 25 25 26 25 21 17 15 16 17 19 21 22 22 23 21 19 17 15 14 15 13 12 11 10 11 12 13 15 15 14 14 14 14 13 12 12 13 12 10 9 9 9 8 8 6 7 7 7 7 7 8 8 8 9 10 11 12 12 12 13 13
26 25 27 28 28 25 21 16 13 14 18 21 22 23 24 24 22 20 18 17 15 15 14 13 12 11 12 13 14 15 16 15 15 14 14 14 12 12 13 12 11 9 9 9 9 10 10 8 5 4 4 5 5 5 5 7 8 9 10 10 11 11 11
28 27 28 30 29 25 20 16 13 15 20 24 25 25 26 25 23 21 20 18 17 16 15 15 14 12 13 14 15 16 16 16 15 15 14 13 12 12 13 13 12 10 9 10 10 10 11 11 7 3 3 4 4 2 2 4 6 7 8 8 9 9 10
30 28 26 28 29 24 19 17 14 16 21 24 25 26 26 25 23 21 20 18 18 17 16 15 14 13 14 15 16 17 17 16 16 15 14 14 12 12 12 12 13 12 10 11 10 10 11 11 8 3 3 4 3 1 1 3 5 5 5 7 7 8 9
28 27 26 29 29 24 19 17 14 16 21 24 25 27 27 26 24 22 21 20 19 17 16 16 15 14 15 15 17 18 16 15 16 16 14 14 13 12 11 11 13 14 13 13 11 10 11 10 8 4 3 3 2 2 3 3 4 2 3 5 5 7 9
26 28 29 31 29 23 19 16 14 18 23 25 27 28 26 25 24 22 22 21 19 18 18 16 15 15 15 16 18 19 17 15 16 16 15 14 13 12 12 11 12 13 13 13 12 11 10 11 10 7 4 3 4 4 4 3 4 4 3 4 4 7 9
25 27 29 29 28 23 19 16 15 19 24 26 27 27 26 25 24 23 22 21 20 20 19 17 16 16 16 17 20 21 19 16 16 16 15 13 12 12 11 11 11 12 12 12 12 12 11 11 11 9 5 6 9 9 6 3 3 4 4 4 4 5 5
28 28 27 26 26 22 18 16 16 20 25 26 27 26 25 24 24 23 22 21 21 21 19 17 17 17 17 18 21 22 20 18 17 16 14 13 12 11 11 11 12 12 12 12 12 12 11 10 11 10 9 10 11 9 7 5 2 1 1 1 1 1 2
33 30 27 25 24 21 19 18 20 23 26 27 27 26 24 23 23 23 23 23 23 22 20 19 18 18 18 20 22 23 22 21 20 16 13 13 12 11 12 14 13 12 12 12 12 12 12 11 11 10 10 10 10 9 8 6 3 2 3 2 2 2 2
35 31 27 25 24 22 20 20 22 25 26 27 27 26 25 24 23 23 23 24 24 23 21 20 20 19 19 20 23 24 23 21 21 18 14 12 11 12 14 15 13 12 13 13 12 12 12 12 11 11 10 10 10 9 8 6 3 4 3 2 2 3 3
Wind_Direction
193 190 190 192 191 192 190 184 181 185 186 193 209 250 332 73 56 63 112 111 97 85 73 68 72 75 76 71 67 69 63 59 62 63 61 61 52 36 34 36 39 37 33 46 55 28 351 336 9 10 1 11 2 359 15 29 31 33 31 30 29 26 23
195 195 194 196 197 195 192 183 177 183 188 204 231 283 349 67 55 91 127 116 100 89 83 79 78 78 82 82 76 71 65 60 60 61 58 54 55 52 45 42 39 30 22 31 45 44 21 356 5 2 359 11 3 2 19 33 32 33 32 32 31 27 25
195 194 193 200 202 193 187 183 176 181 191 206 234 317 5 47 61 141 134 117 103 95 94 91 84 86 91 85 76 69 63 59 55 55 52 46 46 49 60 69 65 65 52 27 29 35 31 18 8 1 4 21 15 5 22 36 35 32 30 30 29 27 26
196 196 198 202 198 187 183 181 175 179 189 197 212 315 331 67 114 151 136 118 107 100 101 99 94 100 96 82 71 64 57 54 52 49 45 46 49 50 66 82 84 83 84 63 42 35 27 19 18 22 19 32 41 20 22 33 34 33 33 31 29 28 28
200 210 208 201 192 183 180 178 175 176 184 186 179 251 231 137 143 153 137 118 111 109 108 107 109 108 94 79 69 63 54 51 53 50 47 54 61 66 70 74 77 80 85 83 75 68 59 44 29 34 37 43 51 31 26 30 28 28 34 34 33 31 31
207 219 210 198 187 181 180 180 176 174 176 175 167 177 152 132 150 151 134 119 115 116 117 117 121 109 90 79 69 62 56 54 58 57 60 68 72 75 75 74 78 81 84 85 82 81 77 63 46 46 50 52 55 37 30 35 30 26 32 34 35 35 34
210 215 207 200 186 178 183 179 174 176 172 163 160 158 130 132 156 148 131 124 121 123 128 129 126 105 87 79 72 64 60 63 69 70 72 78 80 81 81 81 85 85 84 83 81 81 81 75 69 67 48 42 61 54 39 37 35 32 32 30 32 36 38
211 210 203 201 187 180 182 172 172 174 162 157 156 149 132 142 158 149 134 129 129 132 135 135 121 98 87 83 77 71 71 75 77 77 79 83 83 84 86 86 87 86 85 83 81 81 82 80 78 76 64 31 50 57 46 38 33 32 35 34 30 34 40
210 207 202 200 188 182 177 172 177 170 158 162 157 145 144 149 155 149 137 134 137 140 137 132 114 99 91 89 86 79 82 83 81 82 86 88 86 86 88 88 87 86 84 83 82 82 81 79 77 75 75 66 45 44 44 42 35 27 34 39 32 29 38
206 206 203 199 191 185 177 174 177 170 170 174 160 156 150 150 155 149 140 141 143 141 134 125 112 106 99 94 92 88 88 88 87 90 92 91 89 89 89 88 87 86 84 82 80 80 79 78 74 71 73 75 65 49 38 41 39 27 28 37 36 31 37
203 206 204 200 193 187 180 177 175 174 181 178 167 163 149 150 157 149 145 148 144 138 129 123 117 109 102 100 98 96 95 94 93 97 98 95 92 91 90 88 87 86 84 82 79 77 76 76 74 70 68 71 75 67 46 43 45 38 32 34 36 37 41
202 204 203 198 191 187 183 179 175 175 181 183 174 157 149 154 157 151 152 149 142 135 127 125 121 109 106 107 104 102 100 98 99 102 101 97 94 93 91 88 89 88 85 81 79 76 76 74 73 72 67 64 73 74 58 51 53 44 42 39 32 36 43
204 204 200 194 187 184 184 183 178 178 187 194 174 154 151 155 157 156 156 148 141 135 129 128 121 112 113 114 110 107 105 102 104 107 102 98 96 94 92 90 90 91 87 84 81 78 77 75 72 73 71 63 66 75 70 60 58 45 42 42 31 32 43
204 204 197 190 185 182 183 185 181 186 197 194 169 156 154 158 163 164 155 148 143 135 132 131 121 118 119 118 115 112 108 106 108 109 104 100 99 98 96 94 92 91 90 88 86 83 79 76 73 72 73 70 65 72 76 66 57 47 40 41 36 34 43
201 202 193 186 184 182 185 186 183 192 203 189 166 157 157 163 169 165 154 148 144 136 135 133 123 124 124 119 117 115 111 111 112 111 107 103 102 102 100 98 96 93 92 90 87 85 81 76 75 73 73 73 68 69 76 75 61 47 42 42 42 37 41
198 197 190 185 183 183 187 186 184 195 204 182 166 158 161 170 170 163 155 149 144 139 138 134 126 129 127 120 119 118 116 116 116 114 110 107 106 106 104 101 99 96 94 92 87 82 81 77 74 74 72 72 72 70 73 79 73 52 43 43 43 41 41
194 194 191 185 183 184 188 185 185 200 207 178 165 162 165 171 170 164 156 150 148 144 139 133 129 131 129 124 123 122 121 121 120 118 115 112 112 110 108 104 102 100 96 93 88 81 80 79 75 75 73 70 72 73 73 76 75 61 47 42 40 41 42
192 191 190 186 183 184 188 186 188 203 205 178 166 164 168 171 169 165 158 154 152 146 139 135 132 134 133 130 129 129 128 126 124 123 119 118 119 115 112 108 104 103 100 95 91 86 82 82 79 78 78 73 72 74 72 70 68 60 52 45 39 39 44
190 189 189 187 183 184 189 189 193 202 200 183 174 171 173 172 168 166 162 157 155 148 141 138 136 137 138 137 136 136 133 130 129 127 123 122 124 121 116 114 110 107 105 101 96 91 87 85 83 83 84 83 78 74 70 64 59 56 52 47 42 38 40
188 190 190 186 182 186 190 190 197 205 197 184 180 177 178 175 168 168 166 160 157 152 144 141 141 141 143 144 143 141 138 135 133 130 129 128 128 125 120 115 113 110 108 108 103 98 93 87 84 86 88 88 84 76 65 55 50 50 51 47 44 40 35
190 191 190 186 184 188 190 190 198 205 194 182 181 180 180 177 171 167 167 164 162 157 151 148 147 147 151 153 150 147 143 139 137 135 133 133 131 126 122 116 113 113 113 113 110 106 101 93 86 87 90 90 87 79 64 52 49 47 49 49 44 41 36
193 192 189 187 188 191 191 192 199 202 191 181 181 181 179 180 177 170 169 169 167 164 161 160 157 155 158 161 157 152 147 142 141 139 136 136 133 128 127 125 122 119 116 113 110 107 102 98 93 92 93 92 89 84 72 60 56 51 50 52 46 41 38
192 192 189 187 189 191 191 194 201 202 193 183 182 181 177 178 182 179 174 174 172 172 174 172 167 162 163 167 165 158 152 147 144 144 141 139 137 135 136 135 130 122 115 110 109 107 102 98 96 93 92 93 92 91 87 76 68 61 55 55 53 45 39
192 191 190 186 187 190 192 196 202 201 195 190 186 185 182 180 182 180 179 180 178 180 183 180 174 169 167 169 169 163 158 153 150 148 147 144 141 142 142 138 130 120 112 107 104 103 102 99 96 91 87 88 90 92 93 90 82 72 63 59 60 55 42
191 188 188 187 188 191 193 198 204 202 199 194 189 189 190 188 185 181 182 184 185 189 190 186 182 176 171 173 171 166 163 160 157 155 154 152 148 147 148 143 129 118 113 109 101 97 99 97 93 92 91 89 89 90 91 91 89 83 74 66 63 62 52
190 187 188 189 190 192 194 198 203 204 201 197 193 193 195 194 190 187 187 187 190 196 195 190 189 181 175 178 172 166 167 166 163 163 165 165 160 156 157 152 140 135 128 115 101 92 94 96 95 91 89 88 87 87 87 86 87 87 83 76 67 63 61
192 191 191 192 194 193 193 199 206 207 204 198 195 196 197 198 195 191 193 193 197 203 200 193 193 186 180 183 175 169 173 173 168 169 174 175 171 165 162 159 157 154 137 123 120 108 87 85 90 87 80 82 82 82 86 85 84 84 82 79 72 65 62
194 196 196 197 196 192 194 205 213 210 206 201 198 197 198 200 197 195 197 198 202 207 204 197 197 192 186 186 180 175 177 177 174 175 180 181 175 171 167 164 168 164 146 145 157 152 118 88 86 88 81 81 79 78 85 88 85 84 81 79 74 67 62
195 201 201 197 192 191 198 214 221 212 202 200 200 198 199 200 199 198 200 202 207 210 205 201 201 197 193 189 183 181 181 180 178 179 185 185 179 178 172 165 172 174 167 171 168 150 142 132 111 101 100 96 85 74 82 92 89 83 80 78 75 69 63
199 200 201 197 191 192 202 214 220 210 198 196 197 197 199 200 200 203 205 207 213 213 206 205 204 200 197 192 186 185 184 183 182 184 190 188 184 188 180 168 174 181 180 187 178 151 141 134 128 139 131 112 105 90 88 101 95 86 80 77 71 67 62
201 198 201 201 196 196 204 212 219 212 199 194 196 196 197 199 201 207 209 211 217 216 209 207 207 204 201 195 189 187 186 187 187 188 192 190 189 198 193 178 175 176 187 199 186 161 148 136 134 170 162 126 128 154 170 116 91 77 74 74 65 59 57
203 202 205 204 199 200 206 212 219 211 198 194 196 196 196 198 203 208 210 214 218 217 211 208 208 208 204 197 192 186 184 190 193 190 193 194 193 202 204 193 183 177 186 201 190 170 162 146 142 179 181 151 171 210 195 147 113 82 55 62 56 48 45
205 209 208 204 201 203 206 213 218 207 197 196 196 195 195 199 204 209 213 216 216 213 210 208 209 210 205 200 193 184 182 194 196 191 194 196 195 203 206 201 195 186 186 195 190 179 172 157 155 173 180 174 205 214 201 166 149 151 120 75 49 36 27
205 210 210 206 205 204 204 215 218 202 195 195 194 193 195 201 206 211 215 215 212 210 208 207 209 209 204 201 196 186 183 193 197 192 194 194 195 203 204 202 204 197 189 193 193 186 182 171 164 167 184 208 212 204 188 172 155 133 98 53 28 21 4
204 207 208 208 207 205 206 213 208 195 193 194 193 194 198 203 208 212 213 210 209 209 207 206 207 205 202 202 198 189 185 190 193 191 190 190 191 194 195 202 210 205 194 197 199 192 188 185 176 178 197 209 209 198 179 171 176 146 51 338 323 322 308
204 203 204 205 206 208 213 212 199 191 193 195 194 196 201 205 209 211 210 207 207 208 206 205 204 200 201 203 198 191 189 190 187 182 183 189 190 189 197 207 212 207 200 200 203 199 196 193 190 194 202 201 200 196 181 171 189 217 219 227 221 238 271
207 202 201 203 205 209 217 214 199 192 195 197 196 197 200 204 208 210 208 207 207 207 206 205 202 198 201 204 200 194 192 188 183 179 180 186 190 193 206 213 211 206 204 203 204 204 202 200 199 201 202 199 197 192 178 172 209 225 214 226 231 234 253